Wind_Speed
21 21 21 21 21 21 21 21 21 21 20 20 20 20 20 19 19 19 19 19 19 18 18 18 18 18 18 18 18 18 18 18 19 18 17 18 18 18 18 18 19 19 20 21 21 22 22 23 23 23 23 24 24 24 24 24 23 24 23 23 24 23 22 22 21 21 20 20 18 17 17 17 18 17 17 17 17 16 15 16 14 13 15 16 16 16 16 16
24 24 24 24 24 24 24 24 24 23 23 23 22 22 22 22 22 22 22 22 22 22 22 22 21 21 21 21 21 21 21 21 22 22 20 21 22 21 21 21 21 22 22 23 23 24 24 25 25 26 26 26 26 26 26 26 26 26 25 25 26 26 25 25 25 24 24 23 23 22 21 21 20 20 20 20 21 20 19 19 17 15 17 18 18 18 18 18
27 27 27 26 26 26 26 26 26 26 25 25 25 25 24 24 24 24 24 24 24 24 24 25 25 25 25 24 24 24 24 24 25 25 24 24 25 25 25 25 25 25 25 25 26 26 26 26 27 27 28 28 28 28 29 29 29 28 28 27 28 29 28 28 28 28 27 27 27 26 26 25 24 24 23 24 23 23 23 23 21 19 19 20 20 20 19 19
30 29 29 29 29 29 28 28 28 28 27 27 27 26 26 26 26 26 26 26 26 26 26 27 27 27 27 27 27 27 26 27 28 28 27 27 28 28 27 28 28 28 28 28 29 29 29 29 29 29 30 31 30 30 32 32 31 30 30 30 31 31 30 30 31 30 31 30 30 30 30 29 28 28 27 28 25 24 26 26 25 22 22 22 22 22 22 21
32 32 31 31 31 30 30 30 30 29 29 29 28 28 28 27 27 27 27 27 27 27 28 28 28 28 29 29 28 28 28 29 30 29 29 29 29 29 29 30 30 30 31 31 31 32 32 32 31 32 32 33 33 32 34 35 34 32 31 32 33 33 31 31 32 32 33 33 32 33 33 32 31 30 31 31 27 25 28 29 28 26 24 25 25 24 25 25
34 33 33 32 32 32 31 31 31 31 30 30 29 29 29 28 28 28 28 28 27 28 28 28 29 28 29 29 28 28 28 30 31 30 30 31 30 30 30 31 31 31 32 32 33 33 34 34 34 34 33 33 33 33 35 36 35 33 31 33 34 34 32 31 33 33 34 34 34 34 34 34 33 32 33 32 29 28 30 31 32 29 26 26 26 26 26 27
34 34 33 33 32 31 31 31 30 30 30 30 29 29 29 29 29 29 29 29 28 28 28 28 28 28 28 27 27 26 27 30 31 30 30 30 30 30 30 30 31 31 32 33 34 34 35 35 35 36 35 34 34 34 35 36 36 34 31 33 34 35 33 32 33 33 34 34 35 36 34 33 35 35 34 33 30 30 32 33 34 32 29 28 27 27 28 28
33 32 32 32 31 31 30 30 30 30 30 30 30 30 30 29 29 29 29 29 29 28 28 28 28 28 28 26 26 24 25 30 31 30 29 30 30 30 30 30 30 30 31 32 33 34 34 35 35 37 36 34 35 35 36 37 37 36 33 34 35 35 34 33 33 33 35 35 37 38 35 34 37 38 35 32 32 33 35 35 34 34 33 31 30 29 29 29
32 31 31 31 31 31 31 31 31 31 30 30 30 31 30 30 29 29 29 29 29 29 29 30 30 30 30 28 28 24 27 33 32 32 32 31 32 32 31 31 31 31 32 33 34 35 35 35 36 37 36 35 36 35 37 38 37 37 36 36 35 35 34 33 33 33 35 37 39 39 36 35 38 38 33 29 33 36 36 36 34 35 34 33 32 31 31 30
32 32 32 32 32 31 31 31 31 31 31 31 31 31 31 30 30 31 31 32 32 32 32 33 34 34 33 32 31 26 30 35 34 34 34 34 33 32 32 32 32 32 33 33 34 35 35 36 37 38 37 36 36 35 37 38 37 37 38 37 35 35 34 33 33 32 36 39 39 41 38 35 36 37 31 27 34 39 37 35 35 36 34 33 34 33 32 32
33 33 33 33 33 32 32 32 32 32 32 32 32 33 33 33 33 33 34 35 35 35 35 37 37 37 37 35 32 29 33 35 35 35 35 36 35 33 34 34 35 35 35 35 35 35 35 37 37 38 38 36 35 35 36 37 38 38 39 38 34 36 36 31 32 33 37 40 40 42 40 34 34 33 28 27 34 39 37 35 35 35 34 34 34 33 33 32
35 35 35 35 35 35 34 34 34 34 34 34 35 35 36 36 36 36 37 38 38 38 38 39 40 40 40 37 33 33 35 35 35 36 37 37 37 35 35 36 36 36 36 36 37 37 37 37 38 38 38 37 35 34 36 35 38 38 39 39 34 35 35 27 29 34 38 41 40 43 42 34 31 28 25 28 34 37 37 35 33 34 33 33 33 33 33 32
37 38 38 38 38 38 37 37 37 37 37 38 38 39 39 39 39 40 40 40 41 41 41 42 43 43 44 39 34 36 37 36 36 38 39 40 38 37 36 36 36 35 35 36 37 38 38 39 40 40 39 38 35 35 36 36 38 37 39 41 35 35 32 23 28 35 37 41 40 43 44 35 26 24 24 27 33 35 35 33 32 32 32 32 33 33 32 31
39 40 40 40 40 39 39 39 39 39 39 39 40 40 41 41 41 41 41 41 42 43 43 44 44 45 46 41 36 37 38 38 38 40 42 41 40 38 37 37 36 35 35 35 36 36 37 39 41 42 40 38 36 36 38 38 38 38 40 42 37 38 33 24 29 35 37 40 39 43 47 39 27 22 23 27 32 34 34 31 30 30 30 31 32 32 32 31
41 41 41 41 41 41 40 40 40 39 39 39 40 40 41 41 41 40 40 41 42 43 44 44 45 46 47 42 37 38 38 39 40 41 43 42 41 39 38 38 37 36 36 35 35 35 36 38 40 41 40 39 37 38 41 42 40 38 42 42 38 41 40 31 31 34 36 38 40 44 47 43 32 23 23 29 31 34 35 32 30 30 29 29 30 32 33 32
42 42 42 42 42 42 41 41 40 40 39 39 40 41 41 41 41 40 40 41 42 44 45 46 46 47 49 43 39 39 39 39 41 42 42 42 41 40 40 40 39 39 38 37 36 36 38 39 41 41 40 38 36 38 42 44 40 37 42 45 42 44 46 41 33 31 35 40 42 45 48 47 38 28 27 31 32 35 37 35 31 30 28 28 29 30 31 31
43 43 43 43 42 42 41 41 41 40 40 40 41 42 43 43 42 42 42 42 44 45 46 47 47 49 50 45 41 40 40 41 42 42 41 41 41 40 41 41 41 40 39 39 38 38 41 42 44 44 42 38 35 38 43 45 41 38 42 48 48 47 48 47 39 32 35 41 45 47 50 50 42 35 32 32 34 37 38 36 33 30 28 28 29 29 29 30
44 44 44 44 43 43 42 42 42 42 42 42 43 43 45 46 45 45 45 45 46 46 47 47 46 48 49 46 44 43 41 41 42 42 41 40 40 41 42 42 42 41 41 41 40 41 44 44 46 48 44 39 37 40 45 45 43 43 46 49 52 50 49 49 43 36 36 42 47 50 52 51 46 41 37 34 36 39 38 36 34 31 30 30 31 29 28 30
46 46 45 45 44 44 44 44 44 44 44 45 45 45 46 48 48 48 48 48 48 48 48 47 45 47 47 44 44 45 44 43 42 43 42 40 41 42 43 43 43 43 44 43 42 44 46 47 50 50 45 40 39 42 46 46 46 49 50 51 52 51 50 48 44 39 40 45 50 52 54 54 52 48 43 38 37 39 39 36 35 34 33 32 32 30 29 30
48 47 47 47 46 46 46 46 46 46 46 46 47 47 48 49 50 50 50 50 50 49 49 48 47 47 46 45 45 45 45 44 43 43 42 41 42 44 44 43 44 46 45 43 46 48 48 51 53 49 44 41 41 44 47 48 49 50 51 52 52 52 51 47 44 41 40 48 53 52 55 57 55 52 48 43 40 40 38 37 37 35 34 33 32 30 30 31
49 49 49 49 48 48 48 48 47 47 48 48 48 49 49 50 51 51 52 51 50 50 49 49 49 48 47 47 47 46 45 43 41 41 41 42 44 45 45 45 47 47 44 45 48 49 50 55 53 47 44 43 45 46 48 49 50 51 52 52 52 52 51 47 45 42 40 48 53 53 56 57 54 52 49 46 43 39 37 37 37 35 34 33 32 30 30 32
51 51 51 51 50 50 50 49 49 50 50 50 50 51 51 52 53 53 54 53 51 50 51 50 50 51 50 50 49 47 47 43 40 39 40 41 43 44 45 46 48 47 46 47 48 49 53 56 51 46 45 47 48 48 49 50 50 52 52 53 53 52 51 48 46 43 42 49 53 53 56 56 52 51 49 46 44 39 37 37 35 34 35 33 33 33 32 33
54 53 53 53 53 52 52 52 52 52 53 53 52 53 53 54 55 55 55 55 52 50 51 51 52 54 53 53 51 49 48 44 42 41 40 40 40 42 44 46 47 48 50 49 47 50 55 55 50 47 48 49 50 49 50 51 51 52 51 52 54 50 49 51 48 46 47 50 53 54 57 55 50 48 46 44 42 38 37 37 35 34 35 35 36 36 34 32
56 56 55 55 55 54 54 54 54 54 55 54 54 54 54 54 55 55 55 55 53 50 51 52 54 56 55 53 52 51 49 46 45 44 42 41 41 41 42 44 46 49 49 48 48 51 54 54 52 50 50 50 51 50 50 51 51 51 51 52 52 49 48 52 52 51 51 52 52 53 57 55 47 45 42 39 39 38 38 39 37 36 35 35 36 36 34 33
57 57 57 57 57 56 56 56 55 56 56 55 55 54 54 54 54 54 54 54 53 49 52 55 54 53 53 52 51 50 49 48 47 46 44 43 42 42 42 43 45 46 46 46 47 51 53 52 51 50 51 51 51 52 51 50 49 50 51 49 48 48 49 51 51 53 55 54 51 51 57 55 47 43 39 37 39 40 39 39 37 34 35 36 35 34 34 33
59 59 58 58 58 58 57 57 57 57 57 56 55 54 54 54 53 53 54 55 52 49 52 56 54 50 48 48 47 47 46 46 45 44 44 43 42 42 43 43 44 43 43 44 46 50 51 48 47 48 49 50 51 53 50 46 47 51 51 47 46 48 49 49 51 53 55 55 55 54 58 59 53 45 40 40 43 43 41 40 36 33 33 34 33 32 32 31
61 60 59 59 58 59 58 58 58 58 58 58 57 55 54 54 54 54 54 56 54 52 53 55 53 49 45 43 43 43 43 42 42 43 43 43 43 43 44 43 43 43 43 45 47 49 47 45 45 45 46 49 52 51 46 43 48 52 51 48 48 49 48 49 51 52 54 55 57 58 60 62 59 51 46 45 46 46 43 40 36 32 32 32 32 32 31 30
64 63 61 60 58 59 60 59 60 60 59 58 56 55 54 54 55 54 55 57 57 55 53 51 50 50 46 43 41 40 41 42 43 45 44 44 45 44 45 44 44 45 44 46 49 47 46 46 46 46 47 50 50 48 46 46 50 51 50 51 52 51 50 50 50 52 54 55 57 60 60 61 59 56 54 52 48 47 45 41 37 34 33 34 34 33 31 30
63 63 62 61 60 60 60 60 60 60 59 56 55 55 54 55 55 54 55 58 59 56 52 50 50 51 50 47 44 42 42 43 45 46 47 48 47 47 47 47 47 48 47 49 49 47 47 48 49 50 51 50 49 48 48 49 51 51 50 51 52 52 51 51 52 52 55 56 58 60 60 59 56 55 57 55 50 48 46 44 42 39 36 35 35 34 33 31
57 58 58 59 59 59 59 59 58 57 57 55 54 54 53 53 54 54 57 58 57 54 51 51 52 51 50 49 48 47 46 46 47 49 49 49 49 49 49 50 50 50 50 51 50 48 48 49 50 52 51 50 50 50 49 50 51 50 50 51 52 53 53 55 56 56 58 59 59 60 59 57 54 52 55 56 55 53 49 46 45 44 41 38 36 35 34 33
54 54 54 54 53 53 54 55 55 55 56 55 55 54 53 53 53 55 57 54 52 51 50 52 53 51 51 51 50 50 49 49 50 50 50 50 51 51 51 51 50 51 52 52 51 50 50 51 52 52 51 52 52 52 51 51 50 48 48 49 52 53 55 58 60 60 61 60 59 59 57 56 53 52 54 56 57 57 55 52 50 49 47 44 39 37 38 39
56 56 55 53 52 50 49 50 51 53 56 55 54 55 53 53 54 55 55 51 52 53 51 52 53 52 53 53 53 54 54 53 53 52 53 54 55 55 54 53 53 53 54 54 53 53 52 52 53 53 54 53 52 52 52 52 48 46 46 48 51 53 56 60 61 59 60 60 58 57 57 58 56 53 54 54 56 57 58 57 56 54 52 50 45 43 44 45
58 59 58 56 55 53 51 51 51 52 54 52 51 51 50 49 51 53 52 49 50 52 52 53 54 53 55 56 57 59 60 60 60 59 59 58 58 57 56 56 56 57 58 57 57 57 56 54 53 55 55 52 52 51 51 50 47 46 47 48 49 52 56 60 58 57 59 59 56 56 58 60 57 54 53 54 55 57 58 59 60 60 58 55 51 48 47 48
59 59 59 58 57 56 55 56 56 56 57 55 52 50 49 50 50 51 51 49 50 51 52 53 54 55 57 59 61 62 63 65 65 64 64 63 62 60 59 59 58 59 59 59 61 61 60 59 55 55 55 53 53 53 51 51 51 52 52 52 53 55 57 59 57 57 59 58 57 59 61 61 58 56 56 55 57 59 60 62 63 63 61 58 57 55 53 51
62 62 61 60 59 59 58 59 60 60 59 59 57 53 52 53 54 54 55 56 57 57 56 56 57 59 61 62 63 64 65 68 68 68 68 67 66 65 63 62 60 58 57 58 59 58 61 64 61 60 60 57 55 55 54 55 56 57 58 59 60 58 56 57 56 55 56 59 61 63 65 64 60 59 58 57 60 61 62 63 62 64 64 62 62 63 63 58
65 66 66 65 64 64 63 63 63 62 59 59 58 57 57 57 57 56 57 58 58 58 59 58 57 59 61 63 64 64 66 68 70 70 70 70 70 68 67 65 62 59 58 57 57 55 59 65 65 64 64 60 58 57 56 56 57 58 61 62 62 60 59 61 62 60 60 66 67 66 69 67 63 62 60 59 60 61 61 62 61 64 67 67 65 65 67 63
65 65 66 65 65 65 65 65 65 65 63 63 63 64 64 63 61 59 59 59 59 59 61 62 61 61 62 64 65 65 66 68 69 69 69 69 69 70 69 66 62 59 57 57 57 55 57 62 63 63 64 62 59 57 56 56 57 58 60 59 58 61 62 64 67 67 67 70 71 67 68 69 66 66 63 60 62 61 61 63 64 65 68 68 66 65 66 63
68 68 66 65 64 64 65 65 66 66 67 68 68 69 68 66 64 62 62 62 63 64 66 67 68 67 68 68 67 67 68 70 70 69 68 66 66 69 69 66 63 59 56 56 57 58 59 63 62 60 61 62 60 60 60 60 60 60 61 59 59 62 63 64 67 70 70 72 73 69 69 70 68 67 65 63 64 64 65 66 65 65 66 65 63 62 63 60
69 70 70 68 67 67 67 67 67 67 69 70 70 70 68 66 65 63 63 63 65 67 69 70 71 71 72 72 70 70 70 72 73 73 73 71 68 67 66 64 64 62 61 61 64 65 67 72 71 63 61 63 63 63 64 64 64 65 64 62 63 64 64 65 66 69 71 72 73 70 70 71 66 63 64 64 64 66 66 65 63 63 63 61 58 57 57 57
70 71 71 70 70 70 70 70 70 71 73 73 71 71 70 68 67 66 66 66 68 69 71 71 72 73 73 72 72 72 72 73 74 75 77 77 75 72 68 68 68 68 69 69 70 72 74 79 81 74 69 71 71 69 69 68 67 65 63 61 63 64 65 66 68 68 69 72 73 69 69 71 60 53 56 58 59 63 63 61 60 59 58 55 53 54 53 54
71 72 71 70 71 71 71 72 74 75 76 76 75 74 73 71 70 69 69 69 70 71 72 73 73 73 73 72 72 72 73 76 76 77 78 78 78 76 74 73 74 73 74 73 73 76 77 78 78 75 74 76 75 72 70 68 62 57 54 53 56 60 63 68 70 68 67 72 73 67 69 70 52 39 44 49 52 57 57 56 55 54 53 51 51 52 52 53
71 72 71 70 71 72 73 74 75 76 77 78 76 75 74 73 72 70 70 70 71 71 72 73 72 72 72 72 71 71 73 76 77 78 80 79 79 78 75 74 75 75 76 76 78 77 72 69 69 68 68 66 64 61 59 58 53 50 50 50 52 55 58 65 69 66 64 66 65 61 68 68 47 32 37 43 50 56 55 53 53 50 47 47 48 48 48 51
70 70 70 70 70 72 73 75 76 76 76 75 74 73 73 74 72 70 70 70 71 71 71 71 70 70 71 70 71 71 72 74 76 76 78 79 79 77 75 74 75 76 77 77 77 74 69 67 68 69 67 63 60 56 53 52 51 53 55 54 56 55 52 56 61 58 57 58 58 62 72 74 53 35 35 39 46 54 54 52 51 47 43 45 49 49 48 49
70 70 69 69 69 70 72 74 73 73 73 72 71 71 71 72 71 69 68 69 71 71 71 71 70 70 70 70 71 71 71 73 75 75 75 76 76 73 72 72 73 75 77 76 76 76 75 76 75 74 72 70 67 63 60 57 56 59 59 56 57 57 54 54 56 55 57 60 64 73 84 83 66 50 49 49 48 50 51 49 48 48 50 54 56 55 52 49
71 71 70 70 70 71 71 71 70 71 72 71 71 71 69 70 69 66 66 68 69 71 72 72 71 71 71 72 72 73 72 73 75 74 74 75 74 72 70 70 70 72 74 75 77 78 78 79 79 77 77 76 73 69 65 63 64 66 66 61 56 56 56 57 56 59 66 72 78 86 92 90 81 73 72 67 58 54 50 48 53 60 63 62 59 55 51 48
71 71 71 71 72 73 72 70 70 71 72 71 71 71 70 70 68 66 67 69 69 70 73 74 72 72 73 74 74 74 73 72 73 74 75 75 75 75 73 72 72 71 71 73 76 77 75 76 77 78 79 78 77 74 70 70 74 77 77 73 67 61 60 62 66 74 81 84 86 87 87 87 86 85 86 82 75 70 64 61 68 74 70 63 56 52 51 51
71 71 70 71 73 74 73 72 71 72 71 70 72 72 71 71 71 70 71 71 70 70 73 74 73 73 74 74 74 75 73 73 74 75 76 76 75 75 75 74 74 73 72 72 75 75 74 75 77 79 80 79 77 75 73 74 77 78 78 77 76 72 70 72 78 83 81 79 82 82 80 80 81 82 86 87 85 83 77 71 71 71 66 61 55 51 50 51
71 71 71 72 73 73 73 73 72 72 71 71 72 73 72 72 74 73 73 72 71 71 72 74 73 72 72 71 71 73 73 74 75 75 76 76 75 76 77 76 75 74 73 74 75 76 77 78 78 79 81 80 77 76 74 74 75 76 75 76 77 78 78 78 81 81 77 77 82 82 78 78 76 73 73 75 77 76 70 62 58 58 59 57 52 49 50 51
71 71 71 72 73 72 72 72 72 72 72 72 72 73 72 72 72 71 71 72 72 72 72 72 72 70 70 71 71 73 73 73 73 73 73 73 73 75 75 74 72 71 71 73 75 75 76 77 77 77 78 78 77 76 75 74 75 74 75 75 74 74 74 75 76 75 73 75 76 74 72 72 67 61 61 65 65 61 57 54 52 52 53 52 51 52 53 54
71 71 71 72 72 71 70 71 71 72 72 71 72 73 71 70 70 69 69 70 70 71 70 70 71 70 68 67 68 69 68 67 67 65 64 64 64 64 65 66 67 67 68 69 70 70 72 73 72 72 74 75 74 73 73 73 73 72 72 71 69 67 68 68 69 67 67 68 68 68 70 70 64 60 61 61 56 53 54 54 52 51 51 52 55 59 61 62
70 71 71 71 71 70 69 70 70 71 72 71 72 72 70 69 69 69 69 68 67 67 68 68 69 68 64 61 60 61 62 62 61 58 59 62 64 63 65 66 67 68 69 67 67 68 71 74 73 72 73 74 71 71 72 71 70 72 73 72 70 69 70 70 68 66 66 67 68 69 72 72 69 65 61 56 52 51 52 51 50 50 53 58 64 70 72 73
70 70 71 71 71 70 69 70 69 70 71 69 69 70 69 67 68 68 68 68 67 66 66 66 67 67 64 62 61 61 62 64 64 63 65 68 69 69 70 70 69 70 70 69 69 71 71 72 72 70 69 68 65 66 69 70 72 75 75 74 74 74 73 73 73 72 70 71 75 77 77 76 73 70 67 64 60 57 55 55 57 59 62 68 74 78 79 78
Wind_Direction
265 268 270 272 273 275 277 278 279 280 280 281 281 282 282 283 284 285 285 286 286 286 286 287 287 287 287 289 290 291 293 293 292 292 294 294 292 293 294 295 296 297 298 297 297 298 298 297 297 297 297 296 297 297 297 297 298 300 302 303 302 303 305 305 306 305 305 306 306 305 305 306 306 308 311 311 311 312 310 309 312 317 315 316 318 318 319 318
266 268 269 271 272 274 275 276 277 278 279 280 280 280 280 281 281 282 283 283 284 284 285 285 286 286 286 286 287 288 289 289 289 289 291 291 290 291 291 291 291 292 292 292 292 293 294 294 294 294 294 293 294 294 294 294 295 296 298 299 298 299 301 301 303 302 302 303 303 303 303 303 302 304 306 305 307 308 304 302 305 309 308 309 311 311 313 313
267 268 270 271 272 273 274 275 276 277 277 278 279 279 279 279 279 280 281 281 282 283 283 284 285 286 286 286 287 288 288 289 287 287 289 289 290 291 291 290 290 290 291 290 290 291 291 291 291 291 291 291 291 293 292 292 293 295 296 297 295 296 297 298 299 299 299 300 300 300 301 301 301 302 302 301 303 302 297 297 301 302 301 302 304 305 306 307
266 268 269 270 271 272 273 274 274 275 275 276 277 277 277 278 278 278 279 280 281 282 283 283 284 285 286 286 287 288 288 288 287 288 289 289 290 291 291 291 291 292 292 291 291 291 291 291 291 290 290 290 290 291 291 290 291 294 295 294 292 293 295 296 295 296 297 297 297 296 297 298 298 299 299 299 301 294 291 295 297 297 295 295 297 298 300 300
265 266 268 269 270 271 271 272 272 273 273 274 274 275 275 276 276 276 277 277 278 280 281 282 283 284 285 285 286 287 288 288 288 289 289 289 290 291 291 292 292 292 292 292 292 292 292 291 291 290 290 290 290 290 289 289 290 292 293 291 290 291 292 294 293 294 295 295 295 294 295 296 296 296 296 298 298 290 290 294 295 294 292 291 291 293 294 293
264 265 266 267 268 269 270 270 271 271 272 272 273 273 274 274 274 275 276 276 277 278 279 280 281 282 283 284 286 287 289 288 288 289 289 289 290 291 291 292 292 293 293 293 293 293 292 291 291 290 289 289 289 288 287 287 288 289 290 290 289 290 292 292 291 294 294 293 293 292 293 295 294 293 294 298 297 290 290 292 294 293 289 286 287 288 288 288
263 264 265 266 266 267 268 268 269 269 270 270 271 272 272 273 273 274 275 276 277 277 278 279 279 280 281 283 285 287 291 288 287 289 290 291 291 292 292 293 293 294 295 294 294 294 293 293 292 289 290 290 288 287 287 286 287 288 288 286 287 290 291 289 290 292 291 290 289 288 291 292 291 292 295 299 297 290 289 291 293 291 287 285 284 283 282 282
262 263 263 264 265 266 267 267 268 269 269 270 270 270 271 271 272 272 273 273 274 275 276 276 277 278 280 282 284 289 291 288 288 290 291 292 292 292 292 293 294 295 296 296 296 295 295 295 292 291 291 290 288 288 288 287 288 289 288 286 287 289 289 289 290 290 288 287 286 287 290 290 290 293 298 301 295 288 289 291 290 288 286 286 284 280 279 278
260 261 262 262 263 264 265 266 267 268 269 269 269 269 269 270 270 271 271 271 271 272 273 274 275 276 277 278 280 287 289 285 286 290 291 291 291 291 291 292 293 294 294 295 295 296 296 294 292 292 292 290 289 290 289 289 290 290 289 288 289 289 288 289 290 290 288 285 285 287 289 290 290 293 300 302 291 286 288 289 288 286 287 286 284 282 281 279
260 260 261 261 262 263 263 264 265 266 267 267 267 268 268 269 270 270 271 271 271 272 273 274 274 274 275 275 277 282 282 281 284 287 287 288 287 288 289 291 292 293 293 293 294 295 295 293 293 292 292 291 291 291 289 290 291 290 290 290 291 289 287 288 291 291 286 284 286 287 288 289 289 295 303 299 286 285 289 289 287 286 287 286 285 284 283 282
261 262 262 262 262 263 263 264 265 266 266 266 267 267 268 268 269 270 271 272 273 273 274 274 274 274 274 274 276 277 276 278 282 282 283 283 283 285 287 289 291 292 293 293 293 293 293 293 292 292 292 292 292 292 291 291 292 292 292 292 292 289 287 290 292 288 283 284 287 287 288 289 291 298 303 293 285 288 292 292 289 287 286 286 286 285 284 283
263 263 264 264 264 264 265 266 266 267 267 267 268 268 269 269 270 270 271 272 273 273 273 274 274 274 273 274 275 275 273 275 277 277 278 277 278 280 283 285 288 289 291 291 291 291 291 292 292 291 291 291 292 293 291 292 292 293 294 293 293 290 291 296 290 283 282 285 287 287 286 288 294 300 299 290 288 292 294 294 291 288 287 287 286 286 284 283
263 264 265 265 266 266 267 267 268 268 268 269 269 270 270 270 270 271 271 272 272 273 273 273 274 274 274 274 275 274 274 274 273 273 273 273 274 276 279 281 283 286 288 289 289 289 289 290 290 290 290 291 293 292 291 292 292 294 295 293 297 294 292 294 282 279 282 285 287 286 285 288 295 298 293 288 287 289 292 293 290 289 289 288 286 285 284 283
263 263 264 265 266 267 267 268 268 268 269 269 270 270 271 271 271 271 271 271 272 272 273 273 274 274 274 275 275 275 275 274 273 272 271 272 274 275 277 279 280 282 284 286 287 288 288 288 287 287 289 290 292 292 293 293 292 295 295 296 301 296 290 285 278 281 284 285 286 284 284 288 292 293 287 282 282 286 289 291 290 289 288 286 285 285 284 282
262 262 263 264 265 266 267 267 268 268 268 269 270 270 270 270 270 271 272 273 273 273 274 274 274 274 275 275 275 274 273 273 272 272 272 274 275 276 277 278 279 280 282 284 286 287 286 286 285 286 287 288 292 293 293 291 292 297 297 297 298 292 289 285 282 287 289 288 286 284 285 287 289 290 282 277 279 282 285 288 289 287 283 282 281 281 280 280
261 261 262 263 264 264 265 266 267 268 268 269 270 270 270 269 270 271 273 275 276 276 276 275 275 276 276 275 274 273 272 272 272 272 273 274 275 277 277 277 278 279 280 282 283 284 284 284 285 285 286 288 293 295 293 291 296 300 297 294 292 289 289 288 286 290 292 290 287 285 285 285 288 289 281 278 279 280 282 286 286 285 283 281 278 277 277 277
261 261 261 261 262 263 264 265 266 267 268 269 269 269 269 269 270 272 274 277 278 277 277 277 277 276 276 277 275 273 272 271 270 271 273 274 276 277 276 276 277 277 279 279 280 281 282 283 284 284 284 287 293 296 294 295 299 299 293 290 289 288 288 289 290 292 291 288 286 285 284 283 287 288 281 280 282 281 283 285 285 285 284 282 279 279 280 278
261 261 261 261 262 262 263 264 266 267 268 268 268 269 269 270 270 271 274 277 278 277 277 277 278 278 278 278 277 275 272 271 270 271 272 273 275 275 275 276 276 276 277 277 278 279 279 280 281 280 282 287 294 295 293 294 297 294 290 289 288 289 289 290 293 294 291 287 284 283 282 283 285 284 280 280 282 283 283 284 288 288 284 282 282 285 286 282
261 261 261 261 262 263 264 265 266 267 268 269 268 268 268 269 270 271 274 276 278 278 277 277 278 279 280 281 279 277 274 272 271 270 271 272 273 274 274 275 275 275 274 275 277 276 276 277 277 278 284 292 294 291 288 290 292 289 288 288 288 290 290 293 297 297 293 286 282 282 283 283 283 281 281 281 280 282 283 284 287 288 285 284 286 288 287 283
261 262 262 262 263 263 264 266 267 268 269 270 270 269 269 269 270 271 273 275 277 277 276 277 277 277 280 282 280 278 277 275 272 271 272 272 272 271 272 273 273 272 273 275 274 273 274 275 275 280 288 292 288 284 285 286 286 286 287 287 289 290 291 296 299 298 295 288 282 282 282 281 282 283 285 284 281 281 283 284 284 285 285 286 288 288 285 282
262 262 262 263 263 264 266 267 269 270 271 271 271 271 271 271 271 272 272 274 275 276 275 275 277 278 279 280 279 280 279 278 278 276 274 271 270 270 271 271 271 272 273 272 271 273 274 274 277 283 288 285 281 280 282 283 284 285 286 286 287 289 292 295 297 299 296 287 283 283 282 282 284 286 287 286 284 283 283 282 282 284 285 286 287 286 284 282
263 263 263 263 264 266 267 269 270 271 272 272 272 273 273 273 273 273 273 273 273 274 275 275 277 278 279 279 279 281 281 282 283 281 276 272 270 270 270 270 270 271 271 269 271 273 274 274 278 283 281 278 277 278 279 280 282 282 284 285 286 289 292 292 293 295 291 285 285 285 285 285 287 287 287 287 287 288 286 283 283 284 285 285 285 285 284 281
264 264 265 265 266 267 268 269 270 271 271 272 272 273 273 273 274 274 273 273 272 271 272 274 276 276 277 278 280 280 281 284 284 282 279 277 274 272 269 268 269 268 267 268 270 272 273 275 278 278 276 276 276 277 278 278 279 281 283 284 284 289 292 290 290 291 288 285 287 289 288 286 286 287 287 289 291 291 289 287 286 284 284 284 285 285 284 280
265 265 266 266 267 267 268 268 269 270 271 271 272 272 273 274 274 273 273 273 273 271 270 271 272 274 276 277 279 280 281 282 282 281 281 279 276 273 270 269 268 267 268 270 270 270 271 273 275 275 275 275 275 275 276 276 277 280 281 281 283 287 288 287 289 290 288 285 287 291 289 285 286 288 289 293 294 294 292 290 287 286 285 283 282 284 284 282
264 265 266 266 267 267 267 267 268 269 270 271 272 273 274 274 274 273 273 272 272 272 271 269 268 270 274 276 277 279 280 280 280 280 279 278 276 274 272 270 269 270 271 271 270 269 269 271 274 275 275 275 275 274 274 275 278 278 277 279 281 282 282 284 287 288 286 286 288 290 287 286 287 288 291 297 296 294 293 289 289 289 286 283 281 281 282 282
263 264 265 266 267 267 268 268 268 268 269 270 271 272 273 272 272 272 272 271 270 271 271 271 271 271 273 275 275 275 275 276 278 279 279 278 276 274 273 272 272 272 272 271 269 268 269 271 273 274 275 275 274 273 273 276 277 274 274 276 276 276 278 281 283 283 284 286 288 288 286 287 289 289 294 298 294 292 291 291 294 293 286 282 279 276 276 279
263 263 264 265 266 267 268 268 268 269 269 269 270 270 270 270 270 270 271 271 269 269 270 273 277 278 276 274 271 270 271 273 275 276 277 277 276 275 275 273 272 271 270 269 268 270 272 272 271 271 271 272 272 274 276 276 273 271 273 275 274 274 275 276 278 280 280 282 284 284 285 287 291 295 297 295 291 290 292 294 297 294 286 281 277 275 275 277
263 263 263 265 266 267 268 268 269 269 269 269 269 268 268 269 269 270 271 271 269 269 271 275 279 280 277 273 268 267 268 271 275 277 277 278 278 277 277 275 273 270 269 268 270 273 272 270 269 269 268 268 271 275 275 273 271 272 274 274 273 274 274 275 277 277 277 277 278 280 282 285 290 295 296 292 288 290 293 294 294 291 286 282 280 277 276 276
265 265 265 266 266 267 268 268 269 269 269 269 267 267 267 268 269 269 270 268 267 270 274 277 278 277 276 274 271 268 267 270 274 278 280 281 280 279 277 276 273 272 270 269 271 272 269 269 270 269 268 269 271 273 272 272 273 274 274 273 273 274 275 276 276 276 275 274 275 277 281 286 289 292 292 290 290 292 293 294 293 291 288 286 284 280 278 276
267 267 267 267 267 266 266 267 269 270 269 268 267 267 268 268 269 270 268 264 266 272 276 276 275 275 275 274 273 272 271 273 275 277 279 279 279 278 276 275 275 274 273 272 273 272 269 269 269 270 271 271 271 270 270 271 271 272 273 274 275 275 276 277 276 275 274 272 274 276 280 286 287 288 288 290 293 295 295 295 294 293 290 287 284 282 279 276
266 265 266 268 268 268 267 267 267 267 266 265 265 266 269 271 271 269 265 264 270 272 272 273 273 274 274 273 274 276 276 276 275 275 275 275 276 276 275 276 276 276 275 275 275 274 271 270 269 269 271 271 271 271 271 271 271 273 273 274 275 275 276 276 274 274 274 272 274 278 280 281 280 281 284 287 292 294 295 295 293 292 290 287 287 286 283 281
267 265 265 266 267 267 267 266 265 266 266 266 267 267 270 272 270 266 265 269 273 271 269 271 271 271 272 274 276 278 279 278 276 274 273 273 274 274 274 274 275 275 274 275 275 274 272 271 271 271 270 271 273 273 273 272 273 273 272 271 273 274 274 273 273 274 275 274 277 281 281 277 274 277 280 284 288 290 293 293 291 290 288 288 289 289 286 285
268 267 266 266 265 265 265 265 265 265 267 267 268 268 267 267 266 265 267 271 272 271 269 269 269 270 272 274 277 279 280 279 278 277 276 275 274 274 274 274 274 275 275 274 274 273 271 269 270 272 272 272 274 275 275 274 273 271 268 267 269 270 270 271 274 277 278 278 280 281 277 273 275 278 281 283 285 287 289 289 289 289 289 291 292 290 287 285
268 268 268 267 267 265 264 263 263 264 265 264 264 264 263 263 263 265 267 269 270 271 269 268 270 272 273 274 276 279 280 280 279 279 278 278 277 276 276 276 276 276 277 276 275 275 274 270 268 269 269 269 270 273 274 275 273 270 269 267 266 267 269 272 275 278 279 278 278 276 272 271 274 279 280 281 283 285 286 286 288 290 292 294 293 291 288 284
266 265 266 267 267 265 262 260 260 261 263 263 262 262 262 263 264 264 265 266 267 268 268 269 271 272 272 273 275 278 280 280 279 279 278 278 277 277 277 278 278 279 279 279 279 279 277 276 275 272 270 269 268 269 272 274 273 271 270 270 269 271 273 273 273 273 275 276 276 275 274 272 273 275 277 279 280 282 284 286 288 290 292 292 293 293 291 289
265 264 265 265 265 264 261 259 258 259 261 262 262 262 263 264 265 265 266 267 269 270 271 271 271 272 272 273 275 278 278 278 278 278 277 277 276 275 276 277 279 280 280 280 280 279 278 278 278 277 276 275 273 271 270 272 274 273 270 271 274 277 276 275 274 273 273 273 273 275 275 276 276 275 275 276 277 279 283 286 288 288 289 289 290 292 291 292
268 266 265 265 264 262 261 260 260 260 261 262 263 263 264 265 266 268 270 271 273 274 273 272 271 271 272 273 276 277 277 277 278 277 276 276 275 276 277 277 278 279 280 281 280 279 278 278 277 277 279 279 277 276 274 273 275 276 276 277 279 278 276 276 275 273 272 271 272 274 274 275 276 275 275 276 278 280 282 284 285 285 286 287 288 289 290 292
269 269 268 267 267 266 265 264 264 264 264 264 264 264 265 266 268 270 273 274 275 275 275 275 274 273 273 273 273 273 273 274 275 275 275 274 274 276 276 276 276 277 279 281 281 279 279 279 276 273 274 276 276 277 278 278 280 283 285 283 280 278 278 277 274 271 270 270 271 272 270 270 272 274 276 279 280 281 282 283 284 285 285 286 287 288 289 291
268 268 268 268 269 270 269 269 268 267 267 266 266 266 267 268 270 271 273 274 275 275 275 276 276 276 275 274 273 272 271 272 272 273 273 273 272 273 272 272 274 276 280 281 281 280 279 280 280 275 272 274 275 276 279 282 285 287 286 282 279 278 278 276 273 270 269 268 268 268 267 267 270 273 275 277 278 278 279 280 282 285 288 289 289 288 290 293
268 268 268 268 269 270 270 270 270 269 269 269 269 269 269 270 271 272 274 274 274 274 274 274 274 274 275 275 275 274 273 273 272 272 272 272 271 271 271 272 275 277 280 280 280 280 279 281 284 282 278 276 277 278 281 285 287 286 284 282 280 278 276 272 269 267 266 265 264 265 264 264 269 274 275 276 278 278 279 280 282 285 287 288 289 289 291 293
268 268 268 268 269 269 269 269 269 270 270 271 271 272 272 273 273 273 274 273 273 272 273 273 272 273 274 274 274 274 274 273 272 271 271 271 271 271 270 272 275 279 280 280 280 281 282 284 285 286 284 282 281 282 283 284 284 283 282 281 279 277 274 270 267 268 267 263 262 264 265 267 270 271 272 275 278 277 278 280 281 281 283 287 289 290 290 291
269 269 269 268 268 268 268 268 268 269 270 271 273 274 274 274 273 273 272 272 272 272 271 272 273 273 274 273 273 272 271 271 271 271 272 272 272 273 272 273 276 279 280 281 281 282 284 285 284 285 286 284 283 282 280 279 278 276 274 276 279 278 275 271 271 272 271 266 267 270 274 276 274 265 266 273 275 273 272 274 275 277 283 290 291 290 289 287
270 270 270 269 269 268 267 267 268 269 270 272 273 272 272 272 272 272 272 272 272 272 272 272 273 273 273 273 273 272 272 272 271 271 272 272 272 273 275 276 278 279 280 280 280 280 281 280 280 282 282 280 279 276 272 271 272 271 272 278 282 280 275 272 272 273 270 267 271 276 278 279 278 271 270 276 278 274 269 268 272 277 284 289 290 291 290 286
270 270 270 270 269 268 267 268 270 270 271 271 270 270 270 271 271 272 273 273 272 272 273 272 272 272 273 273 273 273 273 272 272 273 272 273 273 274 274 275 275 277 278 280 280 279 278 277 277 278 277 276 275 272 269 267 268 270 273 278 280 276 270 265 264 265 266 268 274 278 280 281 280 276 273 276 280 276 268 267 273 278 282 284 286 287 288 287
271 270 270 270 269 268 268 269 270 270 270 270 270 269 269 270 271 273 272 272 272 272 273 272 273 273 273 273 274 274 274 274 274 274 273 273 274 274 273 273 272 273 275 277 278 278 277 276 276 275 275 275 274 272 270 268 266 269 273 275 275 271 264 261 259 262 268 274 278 279 281 284 284 281 278 276 277 275 269 268 274 277 278 281 282 283 282 282
271 271 271 270 269 269 269 270 270 270 271 272 271 271 271 272 272 272 271 271 272 272 273 273 273 274 274 274 275 275 275 274 274 274 274 274 275 274 274 273 272 272 273 274 275 275 275 274 274 275 275 275 275 274 273 270 269 271 275 276 275 269 263 262 263 269 275 279 279 279 283 286 286 285 283 279 277 276 271 269 272 274 276 277 277 275 273 273
270 270 270 269 269 269 271 271 272 272 272 272 272 272 273 274 274 273 273 273 273 272 272 272 273 273 274 274 274 273 273 273 273 274 275 275 275 274 273 273 272 273 272 272 272 273 273 273 274 275 275 276 276 276 274 272 271 271 272 273 274 272 270 269 271 276 280 280 279 282 286 286 285 287 287 283 282 282 279 275 272 272 272 273 271 269 268 269
270 270 270 269 269 271 272 273 272 272 272 272 272 273 273 274 275 275 275 274 273 272 272 273 273 273 273 272 272 271 272 272 272 273 274 275 275 274 273 273 273 273 272 271 271 271 272 273 274 275 275 276 276 276 275 274 273 272 271 270 271 271 272 273 275 278 279 278 280 284 286 284 286 288 288 285 284 284 281 276 270 266 266 266 266 265 266 266
270 270 270 270 270 271 272 272 272 272 272 272 272 273 274 274 274 274 274 273 273 272 273 273 273 272 272 271 271 272 273 273 273 274 274 273 273 273 274 273 272 271 271 270 271 271 271 272 273 275 275 275 275 275 275 274 273 273 272 272 272 271 271 271 271 273 274 276 279 283 283 282 283 284 284 283 283 280 277 273 268 263 260 259 260 264 266 265
269 269 269 269 270 271 271 271 271 271 271 271 272 273 274 274 273 273 273 273 274 274 273 273 272 272 272 272 272 273 274 275 275 275 274 273 272 272 274 274 273 271 270 270 270 270 269 270 272 273 274 274 274 274 274 274 274 274 274 273 271 271 270 269 270 273 275 276 278 280 279 276 277 280 281 280 277 274 271 268 263 260 258 260 262 264 264 262
269 269 269 269 269 269 269 269 270 270 270 271 273 273 273 273 273 274 273 273 274 274 273 273 273 273 272 271 271 272 274 275 274 272 270 270 270 270 271 273 273 273 272 271 270 269 269 271 272 272 273 274 274 274 273 272 271 270 269 269 268 269 270 271 272 274 274 275 277 277 276 276 277 279 276 271 267 267 265 262 259 258 258 261 264 266 266 265
269 269 269 268 268 268 268 269 269 270 271 272 273 273 273 274 274 274 274 273 273 273 274 273 273 274 272 271 271 271 270 270 269 268 268 268 269 269 270 270 270 270 271 271 270 270 272 273 274 274 274 273 271 270 270 269 269 267 265 266 268 269 270 271 271 271 273 275 277 277 277 277 275 273 270 268 266 264 264 263 261 259 259 262 266 269 270 269
Height
5889 5889 5890 5890 5890 5890 5890 5891 5891 5891 5891 5891 5891 5892 5891 5891 5891 5891 5891 5891 5891 5891 5891 5891 5891 5891 5891 5891 5890 5890 5890 5889 5888 5888 5889 5888 5888 5887 5887 5887 5886 5886 5885 5885 5884 5884 5883 5883 5882 5882 5881 5880 5880 5879 5878 5878 5877 5877 5876 5875 5874 5874 5873 5873 5873 5872 5871 5871 5870 5870 5869 5868 5867 5866 5866 5865 5864 5864 5863 5863 5862 5862 5861 5860 5859 5858 5857 5856
5887 5887 5887 5887 5888 5888 5888 5888 5888 5889 5889 5889 5889 5889 5889 5890 5889 5889 5889 5889 5889 5889 5889 5889 5889 5889 5889 5889 5888 5888 5888 5887 5886 5886 5887 5886 5885 5885 5885 5885 5885 5884 5884 5883 5883 5882 5882 5881 5880 5880 5879 5879 5878 5877 5876 5876 5876 5875 5875 5873 5872 5872 5872 5871 5870 5870 5869 5869 5868 5868 5867 5867 5866 5865 5864 5863 5862 5861 5861 5861 5861 5861 5859 5858 5857 5856 5856 5855
5884 5884 5885 5885 5885 5885 5886 5886 5886 5886 5886 5886 5887 5887 5887 5887 5887 5887 5887 5887 5887 5887 5887 5887 5887 5886 5886 5886 5886 5886 5886 5885 5884 5884 5885 5884 5883 5883 5883 5883 5882 5882 5882 5881 5880 5880 5880 5879 5878 5878 5877 5876 5876 5875 5874 5874 5873 5873 5873 5872 5870 5869 5870 5868 5868 5867 5866 5866 5865 5865 5864 5864 5863 5862 5862 5861 5861 5859 5858 5859 5859 5859 5858 5856 5856 5855 5854 5853
5881 5882 5882 5882 5882 5883 5883 5883 5883 5883 5883 5884 5884 5884 5884 5884 5884 5884 5884 5885 5884 5884 5884 5884 5884 5884 5884 5884 5884 5884 5883 5882 5881 5882 5882 5882 5881 5880 5880 5880 5879 5879 5879 5878 5878 5877 5877 5877 5876 5875 5875 5874 5874 5873 5871 5870 5871 5871 5870 5869 5867 5867 5867 5866 5865 5865 5863 5863 5862 5861 5861 5861 5860 5860 5859 5858 5858 5856 5855 5856 5856 5856 5856 5854 5854 5853 5852 5851
5878 5879 5879 5879 5880 5880 5880 5880 5880 5880 5881 5881 5881 5881 5881 5881 5881 5881 5882 5882 5882 5882 5882 5882 5882 5882 5881 5881 5881 5881 5881 5880 5879 5879 5879 5879 5878 5878 5877 5877 5877 5876 5876 5875 5874 5874 5873 5873 5873 5872 5872 5870 5870 5870 5868 5866 5867 5869 5868 5865 5864 5864 5865 5863 5861 5861 5860 5859 5859 5857 5857 5857 5856 5856 5856 5855 5855 5852 5852 5852 5852 5853 5853 5852 5851 5850 5849 5848
5875 5876 5876 5876 5876 5877 5877 5877 5877 5877 5878 5878 5878 5878 5878 5878 5878 5878 5878 5878 5879 5879 5879 5879 5879 5879 5879 5879 5879 5879 5879 5877 5876 5877 5876 5876 5875 5875 5874 5874 5874 5873 5873 5872 5871 5871 5870 5870 5870 5869 5868 5868 5866 5866 5865 5863 5863 5865 5865 5862 5860 5860 5862 5861 5858 5858 5856 5855 5855 5853 5854 5853 5852 5853 5853 5853 5851 5848 5848 5849 5848 5849 5849 5849 5849 5848 5847 5845
5872 5872 5872 5873 5873 5873 5874 5874 5874 5874 5874 5875 5875 5875 5875 5875 5875 5875 5875 5875 5876 5875 5876 5876 5876 5876 5876 5876 5876 5877 5877 5874 5873 5874 5873 5873 5872 5871 5871 5871 5870 5870 5869 5868 5868 5867 5866 5866 5865 5864 5865 5865 5863 5862 5861 5860 5860 5861 5862 5859 5857 5857 5858 5857 5856 5855 5853 5852 5850 5849 5851 5850 5847 5848 5850 5851 5848 5844 5844 5845 5845 5845 5845 5845 5845 5845 5844 5843
5869 5869 5869 5870 5870 5870 5870 5870 5871 5871 5871 5872 5872 5871 5871 5872 5871 5872 5872 5872 5872 5872 5872 5872 5872 5872 5872 5873 5873 5875 5874 5871 5870 5870 5870 5870 5869 5868 5868 5867 5867 5867 5866 5865 5864 5863 5863 5862 5861 5860 5861 5861 5859 5859 5857 5856 5856 5856 5857 5856 5855 5854 5854 5854 5853 5852 5850 5848 5846 5845 5847 5846 5844 5844 5847 5848 5843 5839 5840 5841 5841 5840 5840 5841 5841 5841 5840 5840
5865 5865 5866 5866 5866 5867 5867 5867 5868 5868 5868 5868 5868 5868 5868 5868 5868 5868 5868 5868 5869 5869 5869 5869 5869 5869 5869 5870 5871 5873 5871 5867 5867 5868 5867 5867 5866 5865 5865 5864 5864 5864 5863 5862 5861 5860 5859 5858 5857 5856 5856 5856 5856 5855 5853 5851 5852 5852 5852 5852 5852 5851 5850 5850 5850 5849 5845 5843 5842 5840 5843 5843 5840 5840 5844 5846 5838 5834 5837 5837 5837 5835 5835 5836 5835 5835 5835 5835
5862 5862 5862 5863 5863 5863 5864 5864 5864 5865 5865 5865 5865 5865 5865 5865 5865 5865 5865 5865 5865 5866 5866 5865 5865 5865 5866 5866 5868 5871 5867 5864 5865 5865 5864 5863 5863 5862 5862 5861 5861 5861 5860 5859 5858 5857 5856 5854 5853 5852 5852 5852 5852 5852 5849 5848 5848 5848 5847 5847 5848 5847 5847 5847 5847 5845 5840 5837 5838 5835 5837 5839 5837 5837 5841 5841 5833 5829 5833 5833 5832 5831 5831 5831 5830 5831 5830 5831
5858 5859 5859 5859 5860 5860 5861 5861 5861 5862 5862 5862 5861 5861 5861 5862 5862 5861 5861 5861 5861 5862 5862 5861 5861 5861 5861 5863 5866 5867 5864 5862 5862 5861 5860 5859 5859 5859 5859 5858 5858 5857 5857 5856 5855 5854 5852 5851 5849 5848 5847 5848 5848 5848 5846 5845 5843 5843 5842 5842 5845 5842 5842 5845 5843 5840 5835 5833 5834 5829 5831 5835 5834 5835 5837 5835 5829 5826 5828 5829 5828 5827 5827 5826 5826 5826 5825 5826
5855 5855 5856 5856 5856 5857 5858 5858 5858 5858 5858 5858 5858 5858 5858 5858 5858 5858 5857 5857 5857 5857 5857 5856 5856 5856 5856 5859 5863 5862 5860 5860 5859 5857 5856 5855 5855 5856 5856 5856 5855 5854 5854 5853 5851 5850 5849 5847 5845 5844 5843 5843 5844 5844 5842 5842 5839 5838 5837 5836 5840 5839 5837 5842 5839 5834 5831 5829 5829 5824 5823 5830 5832 5833 5832 5829 5825 5823 5823 5825 5825 5824 5823 5823 5822 5821 5820 5821
5852 5852 5852 5852 5852 5853 5854 5854 5854 5855 5855 5855 5854 5854 5854 5854 5854 5854 5854 5853 5853 5853 5853 5852 5851 5851 5850 5854 5859 5857 5856 5856 5855 5853 5851 5850 5851 5852 5853 5852 5852 5851 5850 5849 5848 5847 5845 5844 5841 5840 5839 5839 5840 5840 5838 5838 5836 5835 5833 5829 5834 5834 5834 5839 5834 5830 5828 5825 5825 5819 5816 5824 5831 5830 5828 5825 5822 5820 5820 5821 5821 5821 5820 5819 5818 5817 5816 5816
5848 5848 5848 5848 5848 5849 5850 5850 5850 5851 5851 5851 5850 5850 5850 5850 5849 5850 5850 5849 5849 5848 5848 5847 5847 5846 5845 5850 5854 5853 5852 5851 5850 5848 5846 5846 5848 5848 5849 5848 5848 5848 5847 5846 5844 5843 5841 5840 5837 5835 5835 5835 5836 5835 5834 5833 5832 5832 5828 5826 5828 5826 5828 5836 5831 5827 5826 5822 5821 5816 5809 5817 5827 5828 5825 5822 5818 5816 5817 5818 5818 5818 5818 5816 5815 5813 5812 5812
5843 5844 5844 5844 5844 5845 5845 5845 5846 5846 5847 5847 5846 5846 5845 5845 5845 5845 5845 5845 5845 5844 5843 5842 5842 5841 5840 5845 5849 5848 5847 5846 5845 5843 5842 5843 5843 5844 5845 5844 5844 5843 5843 5842 5841 5839 5837 5835 5832 5831 5831 5832 5833 5832 5829 5828 5829 5829 5823 5822 5824 5818 5820 5828 5829 5826 5823 5819 5817 5812 5806 5810 5820 5825 5823 5819 5816 5814 5813 5815 5816 5815 5815 5813 5812 5810 5809 5808
5839 5839 5839 5839 5839 5840 5840 5841 5841 5842 5842 5842 5842 5841 5841 5841 5841 5841 5841 5841 5840 5839 5838 5837 5838 5836 5834 5840 5844 5843 5842 5842 5840 5839 5838 5838 5839 5840 5840 5839 5839 5839 5838 5837 5837 5835 5832 5830 5827 5827 5827 5828 5830 5828 5824 5821 5825 5827 5820 5815 5817 5815 5813 5818 5825 5826 5821 5815 5812 5808 5803 5804 5813 5820 5819 5816 5814 5812 5810 5812 5813 5812 5811 5810 5808 5807 5806 5806
5834 5834 5834 5834 5835 5835 5836 5836 5836 5837 5838 5838 5837 5837 5836 5836 5836 5836 5836 5836 5835 5834 5833 5832 5833 5831 5829 5834 5838 5838 5838 5837 5835 5835 5834 5834 5835 5836 5835 5835 5835 5834 5834 5833 5832 5831 5828 5825 5822 5821 5822 5826 5828 5825 5819 5816 5820 5822 5816 5810 5810 5811 5809 5809 5817 5823 5819 5812 5807 5803 5798 5799 5807 5813 5814 5813 5811 5809 5808 5808 5809 5809 5808 5806 5804 5804 5803 5802
5829 5829 5830 5830 5830 5831 5831 5831 5832 5832 5832 5832 5832 5832 5831 5831 5831 5831 5831 5831 5830 5829 5828 5828 5828 5825 5824 5829 5830 5831 5833 5832 5831 5830 5830 5831 5831 5830 5830 5830 5830 5830 5829 5828 5828 5826 5823 5821 5817 5815 5818 5823 5826 5822 5814 5813 5815 5814 5811 5806 5803 5804 5804 5804 5810 5816 5814 5807 5801 5797 5793 5794 5799 5804 5808 5810 5808 5804 5804 5804 5804 5805 5804 5802 5800 5800 5800 5798
5824 5824 5825 5825 5826 5826 5826 5826 5827 5827 5827 5827 5827 5827 5827 5826 5825 5825 5825 5825 5824 5824 5823 5823 5823 5821 5820 5823 5824 5824 5825 5826 5827 5826 5826 5827 5827 5825 5825 5824 5825 5824 5823 5823 5824 5820 5818 5815 5811 5810 5816 5822 5822 5816 5811 5811 5810 5806 5804 5801 5798 5799 5799 5801 5805 5808 5807 5800 5794 5792 5788 5787 5790 5794 5799 5803 5803 5800 5799 5800 5800 5800 5799 5798 5797 5797 5796 5793
5819 5819 5820 5820 5821 5821 5821 5821 5822 5822 5822 5822 5822 5822 5822 5821 5820 5820 5819 5819 5819 5819 5818 5817 5818 5817 5817 5817 5817 5817 5818 5820 5821 5822 5823 5823 5822 5820 5819 5820 5819 5818 5818 5820 5817 5814 5813 5808 5805 5809 5816 5819 5816 5811 5808 5807 5805 5801 5799 5796 5795 5794 5793 5797 5800 5802 5802 5792 5785 5786 5782 5779 5781 5785 5790 5794 5796 5796 5796 5796 5795 5795 5795 5794 5794 5793 5792 5789
5814 5814 5815 5815 5815 5815 5816 5816 5816 5817 5817 5817 5816 5816 5816 5815 5814 5814 5813 5814 5814 5814 5813 5813 5812 5812 5813 5812 5811 5811 5812 5814 5816 5817 5817 5817 5816 5814 5815 5815 5812 5812 5814 5813 5809 5809 5808 5800 5802 5811 5814 5811 5808 5806 5804 5802 5800 5797 5795 5792 5791 5791 5790 5793 5794 5796 5797 5785 5776 5779 5774 5772 5776 5778 5781 5785 5787 5790 5793 5792 5791 5790 5790 5789 5789 5789 5788 5786
5809 5809 5809 5810 5810 5810 5810 5811 5811 5811 5811 5811 5811 5811 5810 5809 5808 5808 5807 5807 5809 5809 5807 5808 5807 5806 5806 5805 5805 5807 5806 5809 5812 5811 5811 5810 5810 5810 5810 5808 5806 5807 5807 5805 5805 5805 5800 5794 5801 5808 5806 5803 5801 5801 5800 5797 5795 5792 5791 5789 5786 5788 5787 5786 5789 5790 5789 5779 5771 5772 5767 5765 5770 5772 5774 5778 5780 5784 5786 5786 5786 5785 5784 5784 5784 5784 5783 5782
5803 5804 5804 5804 5804 5805 5805 5805 5805 5805 5805 5805 5806 5805 5805 5804 5803 5802 5801 5800 5803 5805 5803 5803 5801 5799 5800 5800 5800 5801 5802 5804 5805 5804 5804 5804 5804 5804 5802 5801 5801 5800 5798 5800 5802 5799 5792 5791 5798 5801 5798 5797 5796 5796 5795 5792 5791 5788 5788 5785 5781 5785 5783 5778 5781 5782 5781 5775 5768 5767 5760 5757 5764 5766 5768 5773 5774 5778 5779 5779 5781 5780 5779 5779 5778 5777 5777 5777
5798 5798 5798 5798 5798 5798 5799 5799 5799 5800 5800 5800 5800 5799 5799 5798 5798 5797 5796 5794 5794 5798 5800 5798 5796 5793 5794 5795 5795 5796 5797 5798 5798 5798 5798 5797 5797 5796 5795 5795 5794 5792 5793 5795 5796 5792 5787 5788 5791 5793 5792 5792 5790 5790 5789 5787 5786 5785 5784 5782 5778 5781 5779 5773 5773 5772 5771 5769 5767 5765 5752 5747 5757 5761 5763 5769 5770 5771 5773 5773 5774 5775 5774 5773 5772 5771 5771 5771
5792 5792 5792 5792 5792 5792 5792 5793 5793 5793 5794 5794 5794 5793 5793 5792 5792 5791 5791 5788 5787 5790 5791 5789 5790 5791 5790 5791 5792 5792 5791 5791 5790 5790 5790 5790 5789 5788 5789 5788 5787 5788 5789 5789 5789 5785 5783 5785 5787 5787 5786 5785 5785 5784 5783 5783 5783 5781 5778 5778 5777 5775 5773 5770 5769 5765 5761 5760 5763 5763 5749 5737 5748 5756 5759 5765 5766 5765 5767 5767 5768 5770 5769 5767 5766 5766 5765 5764
5785 5786 5786 5786 5786 5786 5786 5786 5787 5787 5787 5788 5788 5788 5787 5786 5786 5786 5785 5783 5780 5783 5782 5778 5782 5787 5788 5788 5787 5786 5786 5785 5784 5784 5783 5783 5782 5782 5782 5782 5782 5783 5783 5782 5781 5778 5778 5782 5783 5782 5780 5779 5777 5776 5778 5780 5779 5774 5771 5774 5774 5771 5769 5766 5765 5761 5756 5754 5753 5755 5749 5735 5735 5748 5756 5759 5757 5757 5760 5761 5763 5765 5763 5760 5760 5761 5760 5760
5778 5779 5779 5779 5780 5780 5780 5780 5780 5781 5781 5781 5782 5782 5781 5780 5781 5780 5779 5777 5773 5774 5773 5772 5774 5779 5782 5783 5781 5780 5780 5779 5779 5778 5777 5776 5776 5776 5776 5776 5776 5776 5776 5775 5773 5773 5775 5777 5777 5776 5775 5773 5770 5771 5775 5775 5770 5767 5768 5769 5767 5766 5765 5763 5761 5758 5754 5752 5747 5744 5745 5736 5727 5735 5749 5751 5748 5748 5752 5756 5758 5759 5757 5755 5754 5755 5755 5755
5771 5772 5773 5773 5774 5774 5773 5773 5773 5773 5774 5774 5775 5775 5774 5774 5775 5775 5775 5771 5766 5765 5767 5770 5770 5770 5772 5773 5774 5775 5774 5773 5772 5770 5771 5771 5770 5770 5770 5770 5769 5769 5770 5767 5767 5770 5770 5769 5770 5769 5768 5767 5767 5768 5769 5766 5762 5763 5764 5763 5760 5760 5759 5758 5757 5754 5751 5749 5743 5738 5740 5739 5729 5727 5736 5739 5739 5742 5745 5748 5751 5752 5752 5750 5749 5749 5748 5748
5764 5765 5766 5767 5768 5767 5766 5766 5766 5766 5767 5768 5768 5767 5768 5768 5768 5770 5770 5764 5758 5759 5763 5766 5764 5761 5762 5763 5765 5767 5767 5767 5766 5765 5765 5764 5764 5765 5764 5763 5762 5761 5762 5760 5762 5765 5763 5763 5763 5761 5761 5762 5764 5763 5761 5759 5758 5759 5758 5756 5755 5753 5752 5752 5750 5748 5747 5743 5739 5735 5736 5739 5733 5726 5725 5726 5730 5735 5737 5739 5742 5743 5745 5745 5743 5743 5742 5742
5758 5759 5759 5760 5761 5761 5760 5761 5760 5760 5760 5760 5759 5760 5761 5761 5763 5764 5760 5756 5755 5757 5759 5757 5755 5755 5755 5755 5756 5757 5759 5760 5760 5760 5759 5758 5758 5758 5757 5756 5754 5754 5754 5754 5755 5758 5757 5756 5756 5754 5754 5756 5756 5755 5754 5754 5753 5753 5752 5750 5749 5747 5745 5744 5741 5740 5739 5736 5734 5734 5736 5739 5734 5723 5718 5719 5721 5725 5728 5731 5733 5733 5735 5737 5738 5737 5736 5735
5752 5753 5753 5753 5754 5755 5756 5756 5755 5754 5754 5753 5753 5753 5754 5754 5756 5754 5750 5751 5753 5753 5753 5750 5748 5750 5749 5748 5749 5749 5751 5752 5752 5752 5751 5751 5750 5750 5750 5749 5747 5747 5747 5747 5749 5751 5751 5750 5750 5750 5749 5748 5747 5747 5748 5747 5747 5747 5747 5745 5742 5740 5738 5734 5732 5732 5730 5729 5730 5733 5735 5736 5729 5720 5718 5718 5717 5717 5719 5722 5724 5725 5725 5727 5731 5732 5730 5729
5745 5745 5746 5747 5748 5749 5751 5750 5749 5748 5747 5748 5747 5747 5748 5747 5747 5746 5746 5748 5747 5745 5747 5745 5743 5744 5742 5742 5743 5742 5743 5743 5743 5743 5743 5743 5743 5743 5743 5742 5741 5740 5739 5741 5742 5742 5744 5744 5744 5743 5743 5743 5740 5740 5741 5740 5740 5740 5739 5738 5734 5732 5730 5724 5723 5724 5723 5725 5727 5728 5729 5725 5719 5717 5719 5719 5717 5716 5715 5714 5715 5716 5716 5718 5723 5725 5724 5722
5738 5738 5739 5740 5742 5743 5744 5744 5743 5742 5742 5742 5740 5740 5740 5738 5739 5741 5742 5742 5739 5737 5741 5739 5737 5738 5737 5737 5737 5735 5735 5734 5734 5734 5734 5734 5735 5736 5736 5735 5734 5732 5731 5733 5732 5733 5736 5739 5740 5736 5735 5737 5734 5733 5733 5732 5733 5732 5731 5730 5726 5725 5721 5715 5716 5718 5717 5720 5722 5721 5718 5713 5711 5714 5717 5717 5716 5714 5712 5709 5708 5708 5709 5712 5714 5716 5717 5716
5731 5732 5732 5734 5735 5736 5737 5737 5736 5736 5734 5734 5732 5731 5731 5731 5734 5736 5734 5734 5732 5731 5733 5732 5732 5732 5731 5731 5730 5728 5728 5726 5725 5725 5725 5726 5726 5727 5728 5727 5726 5725 5723 5722 5722 5724 5724 5729 5737 5732 5728 5731 5729 5727 5726 5724 5724 5723 5723 5721 5717 5718 5715 5709 5712 5713 5711 5712 5712 5710 5707 5705 5708 5710 5711 5711 5710 5709 5707 5705 5703 5702 5703 5705 5705 5706 5708 5709
5725 5725 5725 5727 5728 5729 5730 5729 5729 5729 5726 5725 5724 5721 5722 5727 5729 5729 5727 5726 5724 5723 5725 5727 5727 5726 5726 5726 5725 5724 5722 5718 5717 5717 5717 5717 5718 5719 5720 5719 5718 5717 5716 5713 5713 5715 5710 5715 5727 5723 5718 5724 5725 5722 5721 5717 5715 5717 5716 5712 5709 5713 5711 5705 5705 5707 5704 5701 5701 5700 5696 5698 5704 5704 5705 5707 5704 5703 5701 5700 5700 5698 5697 5697 5697 5696 5695 5698
5716 5717 5718 5720 5721 5721 5721 5720 5721 5720 5717 5715 5712 5710 5716 5721 5722 5721 5720 5718 5717 5717 5718 5719 5720 5720 5719 5719 5718 5718 5716 5712 5710 5709 5709 5708 5708 5711 5714 5712 5711 5710 5708 5706 5705 5705 5700 5703 5714 5712 5708 5714 5715 5715 5715 5710 5707 5709 5708 5706 5706 5708 5706 5699 5695 5698 5698 5689 5690 5695 5689 5690 5696 5696 5699 5702 5698 5699 5698 5696 5697 5693 5689 5690 5691 5689 5686 5689
5708 5708 5710 5712 5712 5711 5711 5711 5710 5708 5707 5705 5702 5704 5710 5713 5714 5714 5713 5713 5712 5711 5710 5710 5712 5713 5712 5712 5713 5712 5709 5705 5702 5700 5701 5701 5699 5704 5707 5706 5704 5702 5702 5700 5696 5697 5692 5691 5702 5707 5702 5703 5704 5703 5704 5703 5701 5699 5699 5703 5704 5699 5696 5694 5686 5685 5687 5678 5678 5688 5686 5685 5688 5687 5691 5694 5692 5693 5693 5691 5690 5687 5684 5684 5685 5683 5680 5683
5700 5700 5702 5705 5704 5701 5701 5701 5699 5697 5696 5694 5694 5699 5703 5705 5708 5708 5706 5706 5704 5702 5701 5700 5702 5703 5703 5703 5706 5707 5703 5698 5695 5693 5693 5693 5693 5698 5701 5698 5695 5694 5696 5695 5689 5690 5687 5678 5687 5700 5698 5693 5694 5693 5692 5694 5693 5690 5690 5694 5694 5688 5687 5687 5678 5673 5674 5669 5666 5674 5678 5679 5682 5683 5686 5687 5685 5685 5685 5684 5682 5678 5677 5678 5679 5678 5675 5677
5692 5692 5695 5698 5695 5691 5692 5690 5688 5687 5684 5684 5688 5693 5696 5698 5700 5700 5699 5698 5696 5693 5691 5691 5691 5692 5692 5694 5696 5698 5696 5693 5689 5687 5685 5685 5686 5692 5694 5691 5689 5689 5689 5688 5683 5680 5679 5669 5669 5687 5694 5686 5684 5687 5685 5685 5685 5682 5680 5680 5680 5679 5677 5675 5670 5665 5664 5660 5656 5659 5662 5667 5678 5683 5682 5681 5680 5677 5676 5677 5675 5672 5671 5671 5672 5671 5670 5669
5683 5682 5686 5691 5686 5682 5683 5680 5677 5676 5674 5676 5682 5685 5688 5690 5691 5692 5691 5689 5686 5684 5683 5682 5683 5682 5683 5686 5686 5687 5687 5684 5682 5680 5677 5677 5680 5684 5687 5685 5684 5685 5681 5679 5675 5670 5668 5663 5658 5669 5680 5678 5677 5680 5679 5677 5676 5672 5670 5669 5668 5669 5666 5662 5658 5657 5657 5651 5647 5647 5643 5650 5672 5681 5677 5676 5674 5670 5670 5670 5670 5668 5666 5665 5664 5663 5664 5663
5673 5673 5678 5683 5677 5673 5673 5669 5666 5667 5665 5668 5674 5676 5678 5679 5682 5685 5683 5679 5676 5675 5674 5672 5673 5674 5675 5677 5678 5678 5675 5671 5672 5672 5668 5670 5673 5675 5680 5681 5679 5677 5673 5669 5667 5661 5658 5656 5651 5654 5662 5666 5670 5673 5670 5668 5668 5664 5661 5659 5659 5659 5658 5652 5645 5648 5650 5642 5638 5638 5629 5635 5663 5676 5672 5671 5667 5663 5663 5663 5663 5662 5660 5659 5658 5657 5656 5655
5664 5664 5669 5672 5666 5663 5663 5658 5657 5659 5657 5660 5667 5668 5667 5668 5672 5675 5674 5670 5666 5665 5664 5662 5664 5665 5665 5665 5667 5668 5665 5660 5661 5661 5659 5662 5664 5664 5672 5677 5673 5669 5664 5659 5657 5656 5653 5648 5643 5643 5647 5652 5659 5664 5662 5658 5658 5656 5652 5651 5652 5652 5650 5644 5637 5640 5643 5634 5631 5632 5621 5623 5650 5668 5667 5665 5660 5655 5655 5655 5654 5655 5654 5654 5653 5652 5651 5649
5656 5656 5658 5660 5657 5653 5650 5647 5649 5651 5651 5654 5658 5658 5656 5657 5660 5664 5665 5662 5657 5654 5654 5654 5655 5655 5654 5655 5656 5655 5655 5651 5650 5652 5652 5651 5653 5658 5665 5668 5665 5660 5654 5649 5649 5650 5646 5641 5636 5635 5635 5640 5647 5654 5655 5653 5650 5645 5643 5645 5645 5643 5644 5639 5633 5633 5631 5625 5626 5623 5610 5613 5639 5658 5659 5658 5655 5651 5650 5650 5648 5647 5648 5647 5646 5646 5645 5644
5646 5647 5648 5649 5647 5643 5638 5638 5643 5644 5644 5646 5647 5646 5647 5647 5650 5655 5657 5653 5648 5645 5644 5644 5645 5645 5644 5646 5644 5644 5645 5641 5638 5643 5644 5641 5643 5652 5657 5657 5655 5650 5644 5641 5641 5640 5636 5631 5630 5628 5626 5628 5635 5641 5646 5648 5645 5637 5636 5639 5637 5635 5636 5631 5627 5624 5616 5615 5620 5612 5598 5607 5631 5645 5646 5647 5650 5649 5647 5647 5643 5640 5640 5640 5639 5639 5638 5636
5635 5636 5637 5637 5635 5633 5631 5633 5635 5633 5634 5637 5636 5636 5638 5638 5642 5648 5646 5642 5639 5637 5634 5632 5634 5635 5635 5635 5633 5633 5634 5631 5628 5629 5632 5632 5635 5642 5646 5646 5645 5642 5638 5636 5632 5628 5624 5621 5620 5620 5617 5617 5622 5629 5637 5641 5636 5628 5627 5630 5631 5630 5627 5622 5619 5613 5604 5607 5611 5600 5592 5602 5620 5628 5630 5635 5642 5644 5645 5644 5638 5633 5633 5633 5633 5632 5629 5627
5624 5625 5628 5626 5622 5622 5623 5627 5626 5622 5624 5627 5624 5625 5628 5629 5633 5637 5634 5631 5632 5630 5624 5621 5624 5625 5624 5624 5623 5621 5622 5623 5619 5616 5618 5621 5625 5630 5634 5634 5633 5634 5634 5629 5622 5616 5613 5610 5612 5612 5608 5608 5612 5618 5626 5628 5622 5617 5617 5619 5622 5622 5620 5616 5609 5601 5599 5600 5595 5591 5593 5596 5601 5611 5616 5623 5629 5631 5636 5636 5629 5625 5625 5624 5624 5623 5621 5619
5614 5615 5618 5615 5610 5611 5615 5619 5618 5614 5615 5615 5611 5613 5618 5619 5620 5622 5622 5622 5623 5621 5615 5611 5615 5616 5614 5615 5613 5609 5610 5612 5609 5607 5607 5609 5612 5616 5621 5622 5622 5624 5625 5619 5612 5608 5602 5597 5602 5603 5598 5600 5604 5607 5613 5613 5607 5607 5608 5608 5610 5611 5610 5606 5596 5592 5597 5589 5575 5582 5592 5585 5584 5597 5604 5609 5613 5614 5618 5620 5616 5614 5614 5613 5614 5613 5611 5609
5603 5605 5606 5602 5600 5603 5606 5608 5608 5605 5604 5604 5601 5602 5607 5609 5609 5610 5611 5611 5611 5610 5606 5602 5604 5606 5604 5604 5600 5596 5599 5601 5599 5600 5599 5597 5598 5600 5605 5611 5613 5613 5612 5606 5603 5603 5593 5586 5592 5593 5588 5591 5594 5595 5600 5600 5595 5596 5597 5596 5599 5600 5598 5594 5587 5587 5589 5576 5565 5576 5582 5573 5575 5586 5590 5595 5600 5599 5600 5602 5602 5602 5602 5602 5603 5602 5599 5598
5593 5595 5594 5591 5591 5595 5596 5596 5596 5595 5594 5593 5591 5591 5596 5598 5598 5598 5598 5597 5597 5599 5598 5593 5593 5594 5592 5592 5590 5587 5589 5590 5588 5590 5590 5587 5587 5587 5589 5597 5602 5601 5599 5594 5594 5595 5586 5578 5583 5585 5578 5579 5583 5584 5586 5586 5583 5583 5584 5585 5586 5587 5586 5583 5579 5581 5580 5569 5565 5571 5568 5563 5570 5576 5578 5582 5586 5586 5586 5587 5588 5589 5590 5591 5591 5588 5585 5584
5583 5584 5584 5581 5582 5586 5586 5584 5584 5584 5584 5584 5582 5582 5585 5586 5587 5588 5587 5585 5584 5587 5588 5583 5581 5582 5582 5582 5582 5579 5580 5580 5577 5579 5580 5577 5578 5578 5576 5580 5587 5589 5587 5585 5585 5585 5577 5571 5576 5577 5567 5566 5573 5576 5575 5574 5573 5572 5573 5575 5575 5574 5574 5572 5571 5573 5571 5564 5563 5564 5555 5552 5563 5569 5569 5571 5573 5572 5572 5573 5575 5577 5578 5578 5575 5570 5567 5567
5574 5573 5574 5573 5573 5577 5577 5573 5574 5573 5573 5576 5575 5572 5574 5575 5576 5576 5576 5576 5574 5574 5575 5573 5570 5572 5573 5574 5574 5572 5572 5573 5570 5570 5571 5568 5568 5570 5568 5569 5573 5574 5574 5576 5575 5574 5570 5564 5566 5568 5558 5555 5564 5567 5564 5565 5563 5559 5559 5564 5567 5566 5563 5562 5564 5565 5562 5556 5555 5553 5546 5545 5553 5558 5556 5556 5558 5558 5558 5561 5562 5562 5561 5560 5556 5553 5553 5554
5564 5562 5563 5562 5562 5567 5568 5564 5564 5564 5564 5569 5567 5561 5562 5566 5566 5564 5564 5565 5565 5563 5563 5562 5560 5562 5563 5564 5566 5565 5564 5564 5563 5563 5562 5558 5558 5560 5560 5560 5562 5561 5563 5565 5564 5563 5563 5557 5556 5557 5550 5547 5555 5556 5553 5553 5546 5540 5548 5557 5559 5556 5553 5553 5553 5554 5554 5551 5545 5541 5537 5535 5536 5537 5538 5543 5546 5548 5551 5550 5546 5544 5545 5547 5545 5543 5543 5544